Terminal Aerodrome Forecast
Issued by NWS

Current Version | Previous Version | Graphics & Text | Print | Product List | Glossary On
Versions: 1 2 3 4 5 6 7 8 9 10 11 12 13 14 15 16 17 18 19 20 21 22 23 24 25 26 27 28 29 30 31 32 33 34 35 36 37 38 39 40 41 42 43 44 45 46 47 48 49 50
000
FTUS41 KRNK 031150 AAA
TAFLWB
TAF AMD
KLWB 031150Z 0312/0412 03004KT P6SM SCT025 OVC040
     FM031500 05004KT P6SM OVC025
     FM031800 12004KT 5SM -FZRA BR OVC015
     FM032100 22005KT 4SM -RA BR OVC006 WS020/23041KT
     FM040300 25003KT 2SM BR OVC007 WS020/25051KT=

USA.gov is the U.S. government's official web portal to all federal, state and local government web resources and services.